Regional Weather Roundup
Issued by NWS

Home | Current Version | Previous Version | Text Only | Print | Product List | Glossary Off
Versions: 1 2 3 4 5 6 7 8 9 10 11 12 13 14 15 16 17 18 19 20 21 22 23 24 25 26 27 28

000
ASUS45 KCYS 181910
RWRWY

WYOMING REGIONAL WEATHER ROUNDUP
NATIONAL WEATHER SERVICE CHEYENNE WY
1200 PM MST THU JAN 18 2018

NOTE:  "FAIR" INDICATES FEW OR NO CLOUDS BELOW 12,000 FEET
WITH NO SIGNIFICANT WEATHER AND/OR OBSTRUCTIONS TO VISIBILITY.

WYZ001-182000-
YELLOWSTONE NATIONAL PARK

CITY           SKY/WX    TMP DP  RH WIND       PRES   REMARKS
LK YELLOWSTONE   N/A     33  26  75 VRB3      30.10F
W YELLOWSTONE  NOT AVBL

$$
WYZ002>013-054>058-071-098>099-182000-
NORTHERN WYOMING

CITY           SKY/WX    TMP DP  RH WIND       PRES   REMARKS
JACKSON        FAIR      26  16  65 S3        30.15F
CODY           FAIR      51  27  39 VRB6      29.94F
GREYBULL       FAIR      21  14  74 N6        29.99F WCI  13
WORLAND        FAIR      25  19  78 CALM      29.96F
SHERIDAN       FAIR      36  26  67 NW3       29.80F
BUFFALO        FAIR      54  19  25 SW7       29.85F
GILLETTE       FAIR      45  26  47 SW18G25   29.85F
HULETT         FAIR      46  21  36 SW12      29.87F
NEWCASTLE      FAIR      41  25  52 CALM      29.94F

$$
WYZ014>020-022>026-101>103-182000-
CENTRAL WYOMING

CITY           SKY/WX    TMP DP  RH WIND       PRES   REMARKS
BIG PINEY      FAIR      35  20  54 E5        30.19F WCI  31
PINEDALE       MOCLDY    28  18  64 NW5       30.21F WCI  23
DUBOIS         FAIR      46  23  39 NW16G24   30.02F
LANDER         FAIR      26  18  71 NW3       30.03F
RIVERTON       FAIR      27  16  63 E3        30.04F
CASPER         FAIR      46  22  38 SW30G36   30.03F
DOUGLAS        FAIR      57  26  30 W12       29.96F

$$
WYZ021-027>030-104>119-182000-
SOUTHERN WYOMING

CITY           SKY/WX    TMP DP  RH WIND       PRES   REMARKS
EVANSTON       FAIR      42  22  44 SW14      30.17F
FORT BRIDGER   FAIR      44  19  35 CALM      30.20F
ROCK SPRINGS   FAIR      41  19  41 S5        30.18F
DIXON            N/A     40  21  45 CALM      30.26F
RAWLINS        FAIR      46  22  38 SW13      30.18F
SARATOGA       FAIR      43  18  36 S13G22    30.19F
LARAMIE        FAIR      47  16  29 SW22      30.10F
CHEYENNE       FAIR      54  16  22 W16       30.04F
TORRINGTON     FAIR      53  26  35 W9        29.96F

$$




USA.gov is the U.S. government's official web portal to all federal, state and local government web resources and services.